Regional Weather Roundup
Issued by NWS

Home | Current Version | Previous Version | Graphics & Text | Print | Product List | Glossary On
Versions: 1 2 3 4 5 6 7 8 9 10 11 12 13 14 15 16 17 18 19 20 21 22 23 24 25 26 27 28 29 30 31 32 33 34 35 36 37 38 39 40 41 42 43 44 45 46 47 48 49 50
000
ASUS43 KTOP 280808
RWRKS

WEATHER ROUNDUP FOR KANSAS
NATIONAL WEATHER SERVICE GOODLAND KS
300 AM CDT SAT MAR 28 2015

NOTE:  "FAIR" INDICATES FEW OR NO CLOUDS BELOW 12,000 FEET WITH NO
SIGNIFICANT WEATHER AND/OR OBSTRUCTIONS TO VISIBILITY.

KSZ001>006-013>018-027>032-041>047-280900-
NORTHWEST KANSAS

CITY           SKY/WX    TMP DP  RH WIND       PRES   REMARKS
GOODLAND       CLEAR     45  33  63 W8        30.01F
HAYS           PTCLDY    39  28  65 E3        29.95F
HILL CITY      PTCLDY    36  31  82 N6        29.96F
RUSSELL        PTCLDY    38  33  82 S8        29.95F
$$

KSZ061>065-074>080-084>089-280900-
SOUTHWEST KANSAS

CITY           SKY/WX    TMP DP  RH WIND       PRES   REMARKS
DODGE CITY     CLEAR     48  34  58 SW14      29.99S
ELKHART          N/A     50  31  48 W10         N/A
GARDEN CITY    FAIR      44  35  70 W9        29.99F
GREAT BEND     PTCLDY    41  32  70 SE7       29.97S
LIBERAL        CLEAR     50  32  50 SW14      30.03S
PRATT          CLEAR     41  34  75 SW12      29.98F
$$

KSZ066>073-081>083-090>101-280900-
SOUTHEAST KANSAS

CITY           SKY/WX    TMP DP  RH WIND       PRES   REMARKS
CHANUTE        CLOUDY    41  28  60 SE8       30.08F
COFFEYVILLE    CLOUDY    42  32  67 SE6       30.08F
HUTCHINSON     CLEAR     42  31  64 S9        30.00F
MEDICINE LODGE   N/A     41  35  79 S6        29.99F
NEWTON         CLOUDY    43  28  56 SE8       30.03F
PARSONS        CLOUDY    43  30  60 SE5       30.09F
WICHITA INTL   PTCLDY    42  31  64 S9        30.02F
WICHITA JABRA  MOCLDY    43  31  62 S8        30.02F
WICHITA MCCONL PTCLDY    43  31  62 SE7       30.02F
WINFIELD       MOCLDY    44  32  62 SE6       30.05F
$$

KSZ007>012-019>026-033>040-048>060-102>105-280900-
NORTHEAST KANSAS

CITY           SKY/WX    TMP DP  RH WIND       PRES   REMARKS
CONCORDIA      MOCLDY    39  26  59 SE5       30.00F
EMPORIA        CLOUDY    39  25  57 SE6       30.06F
LAWRENCE       CLOUDY    39  25  57 SE7       30.10F
MANHATTAN      MOCLDY    39  23  52 SE3       30.05F
MARYSVILLE     CLOUDY    36  27  69 SE7       30.05R
OLATHE IND     CLOUDY    38  24  57 SE7       30.10F
OLATHE EXE     CLOUDY    39  23  52 SE8       30.09F
SALINA         CLOUDY    45  31  58 SE8       30.01F
TOPEKA BILLARD CLOUDY    39  24  55 SE6       30.09F
TOPEKA FORBES  CLOUDY    40  25  55 SE7       30.07F
$$



USA.gov is the U.S. government's official web portal to all federal, state and local government web resources and services.